weather.gov     
National Weather Service

Terminal Aerodrome Forecast
NWS Homepage
This page is being discontinued on March 12, 2014.
The same data is available at this site. Please update your bookmarks.
Thank you, and we apologize for the inconvenience.
Please send an email to SR-SRH.Webmaster@noaa.gov with any concerns.


Current Version
Previous Version:    01  02  03  04  05  06  07  08  09  10  11  12  13  14  15  16  17  18  19  20  21  22  23  24  25  26  27  28  29  
[Printable]
109
FTUS45 KRIW 230800 AAA
TAFBPI
TAF AMD
KBPI 230826Z 2308/2406 31010KT P6SM SCT060
     FM231400 29015G25KT P6SM SCT040 BKN060
     FM231800 30022G32KT P6SM VCSH SCT045 BKN060
     FM240100 30013KT P6SM BKN080
     FM240500 30008KT P6SM SCT080=


U.S. Dept. of Commerce
NOAA National Weather Service
1325 East West Highway
Silver Spring, MD 20910
E-mail: w-nws.webmaster@noaa.gov
Page last modified: May 16, 2007
NATIONAL WEATHER SERVICE: for Safety, for Work, for Fun - FOR LIFE